Location: Unspecified
(0.0000°N, 0.0000°E)
Time: 18:31:21
(UTC+00:00)

N. Korean satellite - Visible Passes

Search period start: 10 December 2018 00:00
Search period end: 20 December 2018 00:00
Orbit: 456 x 511 km, 97.2° (Epoch: 09 December)

Date Brightness Start Highest point End Pass type
(mag) Time Alt. Az. Time Alt. Az. Time Alt. Az.
13 Dec 10.0 05:09:24 10° ENE 05:11:27 14° ESE 05:13:32 10° SE visible
13 Dec 9.5 18:29:51 10° SSW 18:32:34 22° WSW 18:35:17 10° NW visible
16 Dec 10.5 18:51:56 10° WSW 18:52:13 10° WSW 18:52:29 10° W visible
17 Dec 10.2 05:05:03 10° ENE 05:06:38 12° ESE 05:08:14 10° SE visible
17 Dec 9.1 18:24:49 10° SSW 18:27:43 25° WSW 18:30:36 10° NW visible
